{"data":{"norad_id":31306,"epoch":"2026-09-19T15:08:39.329664Z","epoch_age_seconds":93296,"freshness":"FRESH","line1":"1 31306U 07016A   26262.63101076 -.00000188  00000+0  00000+0 0  9995","line2":"2 31306   1.5583  80.6146 0004862  96.4605  24.1473  1.00272628 45932","mean_motion":1.00272628,"eccentricity":0.0004862,"inclination_deg":1.5583,"raan_deg":80.6146,"arg_perigee_deg":96.4605,"mean_anomaly_deg":24.1473,"bstar":0,"rev_number":4593,"period_min":1436.0848306479,"perigee_km":35765.858261565,"apogee_km":35806.859017124,"semimajor_km":42164.495639345,"source":"CELESTRAK","updated_at":"2026-09-20T09:00:35.637682Z"}}